TimeCST,TemperatureF,Dew PointF,Humidity,Sea Level PressureIn,VisibilityMPH,Wind Direction,Wind SpeedMPH,Gust SpeedMPH,PrecipitationIn,Events,Conditions,WindDirDegrees,DateUTC
12:53 AM,37.0,27.0,67,30.05,10.0,WNW,9.2,-,N/A,,Partly Cloudy,290,2013-01-31 06:53:00
1:53 AM,36.0,27.0,70,30.07,10.0,WNW,10.4,-,N/A,,Clear,300,2013-01-31 07:53:00
2:53 AM,35.1,27.0,72,30.07,10.0,WNW,4.6,-,N/A,,Partly Cloudy,290,2013-01-31 08:53:00
3:53 AM,34.0,27.0,75,30.09,10.0,WSW,5.8,-,N/A,,Clear,250,2013-01-31 09:53:00
4:53 AM,34.0,27.0,75,30.12,10.0,West,6.9,-,N/A,,Partly Cloudy,270,2013-01-31 10:53:00
5:53 AM,33.1,26.1,75,30.12,10.0,West,9.2,-,N/A,,Clear,280,2013-01-31 11:53:00
6:53 AM,33.1,26.1,75,30.14,10.0,West,6.9,-,N/A,,Clear,270,2013-01-31 12:53:00
7:53 AM,34.0,27.0,75,30.17,10.0,West,11.5,-,N/A,,Clear,270,2013-01-31 13:53:00
8:53 AM,36.0,25.0,64,30.19,10.0,West,16.1,-,N/A,,Clear,280,2013-01-31 14:53:00
9:53 AM,39.0,25.0,57,30.23,10.0,Variable,6.9,-,N/A,,Clear,0,2013-01-31 15:53:00
10:53 AM,42.1,25.0,51,30.23,10.0,WNW,11.5,19.6,N/A,,Clear,290,2013-01-31 16:53:00
11:53 AM,45.0,24.1,44,30.22,10.0,WNW,9.2,-,N/A,,Clear,290,2013-01-31 17:53:00
12:53 PM,48.0,24.1,39,30.19,10.0,WNW,11.5,19.6,N/A,,Clear,290,2013-01-31 18:53:00
1:53 PM,50.0,23.0,35,30.19,10.0,West,13.8,-,N/A,,Clear,270,2013-01-31 19:53:00
2:53 PM,51.1,23.0,33,30.18,10.0,West,11.5,-,N/A,,Clear,260,2013-01-31 20:53:00
3:53 PM,50.0,23.0,35,30.17,10.0,WSW,13.8,17.3,N/A,,Clear,240,2013-01-31 21:53:00
4:53 PM,48.9,24.1,38,30.17,10.0,WSW,12.7,-,N/A,,Clear,250,2013-01-31 22:53:00
5:53 PM,48.0,24.1,39,30.18,10.0,SW,6.9,-,N/A,,Clear,230,2013-01-31 23:53:00
6:53 PM,45.0,26.1,48,30.19,10.0,SSW,6.9,-,N/A,,Clear,200,2013-02-01 00:53:00
7:53 PM,45.0,26.1,48,30.19,10.0,SSW,8.1,-,N/A,,Clear,200,2013-02-01 01:53:00
8:53 PM,46.0,25.0,44,30.21,10.0,SW,8.1,-,N/A,,Clear,220,2013-02-01 02:53:00
9:53 PM,45.0,26.1,48,30.22,10.0,SW,6.9,-,N/A,,Clear,230,2013-02-01 03:53:00
10:53 PM,46.0,26.1,46,30.22,10.0,SW,9.2,-,N/A,,Clear,230,2013-02-01 04:53:00
11:53 PM,45.0,26.1,48,30.21,10.0,SW,10.4,-,N/A,,Clear,230,2013-02-01 05:53:00